COSMOS 2151

Last updated on Mon Sep 21 2026 00:02:08 GMT+0000 (Coordinated Universal Time)

1 21422U 91042A 26263.55103548 .00000831 00000+0 63437-4 0 9995 2 21422 82.4930 255.6326 0013790 116.8115 243.4521 15.00648944892417
UTC large
Height (km)
Speed (km/s)
/
Latitude / Longitude
Inclination (degrees)
Orbital Period (minutes)
Azimuth
Elevation
Range (km)
Doppler Factor

Next 0 passes for location: London (51.5072 / 0.1276)

No passes found over London.
COSMOS 2151